GONETS-M 18 (46487 NORAD) Tracking and Keplerian Element Data

This shows tracking and keplerian element data for the satellite.

Feedback or suggestion? Click here.




ElementValue
Catalog46487
NameGONETS-M 18
Epoch Orbit381
Epoch Day303.14203244
Epoch Year2020
RAAN187.073
Inclination82.4968
Eccentricity0.0013435
Argument of Perigee200.6666
Mean Anonmoly159.3868
Mean Motion12.41646788
Decay Rate1E-07
L11 46487U 20068B 20303.14203244 .00000010 00000-0 00000+0 0 9993
L22 46487 82.4968 187.0730 0013435 200.6666 159.3868 12.41646788 3815

Live tracking and technical data element details for GONETS-M 18 (NORAD 46487). GONETS-M 18 can be tracked NOW for your location showing map with azimuth and elevation plus other details from your city location.

Track the satellite on the map from your city or location and see movement details for azimuth, elevation, latitude, longitude, range, height, and movement on the map or in text.







IsCatalogInMostPopularTable: catalog: 46487, numindb: 6
Update: records affected: 1



GetName: 46487 GONETS-M 18

Hit Count: updated at: Fri, 30 Oct 2020 01:00:29 GMT